Location: Bakov nad Jizerou
(50.4784°N, 14.9394°E)
Time: 03:35:02
(UTC+00:00)

Cosmos 1727 Rocket - Pass Details

Date: 27 October 2021
Orbit: 960 x 997 km, 82.9° (Epoch: 07 December)

Event Time Altitude Azimuth Distance (km) Brightness Sun altitude
Rises 03:24:40 0° 142° (SE) 3,694 7.5 -22.5°
Reaches altitude 10° 03:27:47 10° 127° (SE) 2,745 7.0 -22.0°
Maximum altitude 03:32:20 22° 80° (E) 2,031 6.5 -21.3°
Drops below altitude 10° 03:36:53 10° 34° (NNE) 2,740 6.8 -20.5°
Sets 03:39:58 0° 19° (NNE) 3,687 7.3 -20.1°
